Regional Weather Roundup
Issued by NWS

Home | Current Version | Previous Version | Text Only | Print | Product List | Glossary On
Versions: 1 2 3 4 5 6 7 8 9 10 11 12 13 14 15 16 17 18 19 20 21 22 23 24 25 26 27 28 29 30 31 32 33 34 35 36 37 38 39 40 41 42 43 44 45 46 47 48 49 50
325
ASUS43 KLOT 150059
RWRIL

ILLINOIS REGIONAL WEATHER ROUNDUP
NATIONAL WEATHER SERVICE CHICAGO/ROMEOVILLE IL
800 PM CDT FRI MAY 14 2021

NOTE: "FAIR" INDICATES FEW OR NO CLOUDS BELOW 12,000 FEET WITH NO
SIGNIFICANT WEATHER AND/OR OBSTRUCTIONS TO VISIBILITY.

* THESE STATIONS ARE NOT UNDER NWS QUALITY CONTROL. THEY ALSO MAY NOT
  REPORT WEATHER SUCH AS PRECIPITATION OR FOG.

ILZ001-002-007-009-015-016-024-150200-
NORTHWEST ILLINOIS

CITY           SKY/WX    TMP DP  RH WIND       PRES   REMARKS
MOLINE         PTCLDY    64  33  31 SE6       30.18S
$$

ILZ003-004-008-010-011-017-018-150200-
NORTH CENTRAL ILLINOIS

CITY           SKY/WX    TMP DP  RH WIND       PRES   REMARKS
ROCKFORD       NOT AVBL
$$

ILZ005-006-012>014-019>023-150200-
NORTHEAST ILLINOIS

CITY           SKY/WX    TMP DP  RH WIND       PRES   REMARKS
CHICAGO-OHARE  CLOUDY    63  28  26 SE8       30.21S
CHICAGO-MIDWAY NOT AVBL
AURORA         MOCLDY    63  32  31 S5        30.20S
WAUKEGAN       NOT AVBL
DUPAGE AIRPORT MOCLDY    61  34  36 S6        30.20S
WHEELING       MOCLDY    64  29  26 SE7       30.22F
$$

LMZ740>746-150200-
SOUTHERN LAKE MICHIGAN

STATION/POSITION SKY/WX   TEMP    WIND        PRES    VSBY  WAVE
                          AIR SEA DIR/SP/G                  HT/PER
                          (F)     (DEG/KT/KT) (MB)    (MI)  (FT/S)
WINTHROP HARBOR            53 52  210/  8/ 10   N/A           1/ 2
WILMETTE HARBOR               53  110/  8/ 10 1022.6F         1/ 1
HARRISON CRIB              59      90/ 14/ 14   N/A
CALUMET HARBOR                     90/  6/ 10 1022.8
BURNS HARBOR               58      70/  5/  7 1024.0S
MICHIGAN CITY              59      60/ 11/ 11 1023.8F
ST. JOSEPH                 55 53  360/  4/  4 1024.3F         0
$$

ILZ025>027-034>036-040-047-049-050-058-095>099-150200-
WEST-CENTRAL ILLINOIS

CITY           SKY/WX    TMP DP  RH WIND       PRES   REMARKS
$$

ILZ028>032-037-038-041>044-048-051>054-059>061-150200-
CENTRAL ILLINOIS

CITY           SKY/WX    TMP DP  RH WIND       PRES   REMARKS
PEORIA         NOT AVBL
SPRINGFIELD    CLEAR     63  33  32 SE8       30.22S
TAYLORVILLE    NOT AVBL
$$

ILZ033-039-045-046-055>057-062-063-150200-
EAST-CENTRAL ILLINOIS

CITY           SKY/WX    TMP DP  RH WIND       PRES   REMARKS
$$

ILZ079-100>102-150200-
SOUTHWEST ILLINOIS

CITY           SKY/WX    TMP DP  RH WIND       PRES   REMARKS
ALTON          CLEAR     63  39  42 SE8       30.21S
CAHOKIA*       CLEAR     65  34  31 SE5       30.21S
$$

ILZ064>066-069>071-074>076-080>082-084>086-088>090-092>094-150200-
SOUTH-CENTRAL ILLINOIS

CITY           SKY/WX    TMP DP  RH WIND       PRES   REMARKS
CARBONDALE     CLEAR     65  37  35 CALM      30.23R
$$

ILZ067-068-072-073-078-083-087-091-150200-
SOUTHEAST ILLINOIS

CITY           SKY/WX    TMP DP  RH WIND       PRES   REMARKS
CARMI*         CLEAR     66  39  37 MISG      30.24R
$$

ABBREVIATIONS USED IN REMARKS
   TC - TEMPERATURE IN CELSIUS
  WCI - WIND CHILL INDEX
   HX - HEAT INDEX
  VSB - VISIBILITY
$$





USA.gov is the U.S. government's official web portal to all federal, state and local government web resources and services.